SCP
0 0 0 0 0 0 0 0 0 0 0 0 0 0 0 0 0 0 0 0 0 0 0 0 0 0 0 0 0 0 0 0 0 0 0 0 0 0 0 -0 -0 0 0
0 0 0 0 0 0 0 0 0 0 0 0 0 0 0 0 0 0 0 0 0 0 0 0 0 0 0 0 0 0 0 0 0 0 0 0 0 0 0 0 0 0 0
0 0 0 0 0 0 0 0 0 0 0 0 0 0 0 0 0 0 0 0 0 0 0 0 0 0 0 0 0 0 0 0 0 0 0 0 0 0 0 0 0 0 0
0 0 0 0 0 0 0 0 0 0 0 0 0 0 0 0 0 0 0 0 0 0 0 0 0 0 0 0 0 0 0 0 0 0 0 0 0 0 0 0 0 0 0
0 0 0 0 0 0 0 0 0 0 0 0 0 0 0 0 0 0 0 0 0 0 0 0 0 0 0 0 0 0 0 0 0 0 0 0 0 0 0 0 0 0 0
0 0 0 0 0 0 0 0 0 0 0 0 0 0 0 0 0 0 0 0 0 0 0 0 0 0 0 0 0 0 0 0 0 0 0 0 0 0 0 0 0 0 0
0 0 0 0 0 0 0 0 0 0 0 0 1 0 0 0 0 0 0 0 0 0 0 0 0 0 0 0 0 0 0 0 0 0 0 0 0 0 0 0 0 0 0
1 0 0 0 0 0 0 0 0 0 0 0 1 0 0 0 0 0 0 0 0 0 0 0 0 0 0 0 0 0 0 0 0 0 0 0 0 0 0 0 0 0 0
0 0 0 0 0 0 0 0 0 0 0 0 0 0 0 0 0 0 0 0 0 0 0 0 0 0 0 0 0 0 0 0 0 0 0 0 0 0 0 0 0 0 0
0 0 0 0 0 0 0 0 0 0 0 0 0 0 0 0 0 0 0 0 0 0 0 0 0 0 0 0 0 0 0 0 0 0 0 0 0 0 0 0 0 0 0
0 0 0 0 0 0 0 0 0 0 0 0 0 0 0 0 0 0 0 0 0 0 0 0 0 0 0 0 0 0 0 0 0 0 0 0 0 0 0 0 0 0 0
0 0 0 0 0 0 0 0 0 0 0 0 0 0 0 0 0 0 0 0 0 0 0 0 0 0 0 0 0 0 0 0 0 0 0 0 0 0 0 0 0 0 0
0 0 0 0 0 0 0 0 0 0 0 0 0 0 0 0 0 0 0 0 0 0 0 0 0 0 0 0 0 0 0 0 0 0 0 0 0 0 0 0 0 0 0
0 0 0 0 0 0 0 0 0 0 0 0 0 0 0 0 0 0 0 0 0 0 0 0 0 0 0 0 0 0 0 0 0 0 0 0 0 0 0 0 0 0 0
0 0 0 0 0 -0 -0 -0 -0 0 0 0 0 0 0 0 0 0 0 0 0 0 0 0 0 0 0 0 0 0 0 0 0 0 0 0 0 0 0 0 0 0 0
0 0 0 0 0 0 0 -0 -0 -0 -0 0 0 0 0 0 0 0 0 0 0 0 0 0 0 0 0 0 0 0 0 0 0 0 0 0 0 0 0 0 0 0 0
0 0 0 0 0 0 0 0 0 0 -0 -0 -0 -0 0 0 0 0 0 0 0 0 0 0 0 0 0 0 0 0 0 0 0 0 0 0 0 0 0 0 0 0 0
0 0 0 0 0 0 0 0 0 0 0 0 0 0 0 0 0 -0 -0 -0 0 -0 0 0 0 0 0 0 0 0 0 0 0 0 0 0 0 0 0 0 0 0 0
0 0 0 0 0 0 0 0 0 0 0 0 0 0 0 0 0 0 0 0 0 0 0 0 0 0 0 0 0 0 0 0 0 0 0 0 0 0 0 0 0 0 0
0 0 0 0 0 0 0 0 0 0 0 0 0 0 0 0 0 0 0 0 0 0 0 0 0 0 0 0 0 0 0 0 0 0 0 0 0 0 -0 -0 -0 0 0
0 0 0 0 0 0 0 0 0 0 0 0 0 0 0 0 0 0 0 0 0 0 0 0 0 0 0 0 0 0 0 0 0 0 0 0 0 0 0 0 0 0 -0
0 0 0 0 0 0 0 0 0 0 0 0 0 0 0 0 0 0 0 0 0 0 0 0 0 0 0 0 0 0 0 0 0 0 0 0 0 0 0 0 0 0 0
0 0 0 0 0 0 0 0 0 0 0 0 0 0 0 0 0 0 0 0 0 0 0 0 0 0 0 0 0 0 0 0 0 0 0 0 0 0 0 0 0 0 0
0 0 0 0 0 0 0 0 0 0 0 0 0 0 0 0 0 0 0 0 0 0 0 0 0 0 0 0 0 0 0 0 0 0 0 0 0 0 0 0 0 0 0
0 0 0 0 0 0 0 0 0 0 0 0 0 0 0 0 0 0 0 0 0 0 0 0 0 0 0 0 0 0 0 0 0 0 0 0 0 0 0 0 0 0 0
0 0 0 0 0 0 0 0 0 0 0 0 0 0 0 0 0 0 0 0 0 0 0 0 0 0 0 0 0 0 0 0 0 0 0 0 0 0 0 0 0 0 0
Wind_Speed_500mb
38 38 43 42 30 27 32 36 38 37 40 40 37 39 47 48 42 40 44 41 41 39 37 35 32 34 30 28 27 27 26 25 23 22 20 17 15 15 12 11 11 12 13
38 38 38 37 38 31 31 35 40 42 47 47 46 49 51 56 50 45 46 50 47 46 41 41 39 38 39 33 31 29 26 26 26 26 25 24 22 19 17 14 14 13 15
36 37 39 39 39 36 39 44 41 44 46 49 54 56 58 63 65 61 52 53 55 52 47 45 46 44 43 44 41 34 32 28 27 27 28 29 28 25 22 20 18 16 18
40 38 41 46 47 48 46 44 45 55 58 56 62 66 63 62 64 65 69 64 57 60 58 52 51 50 49 46 45 48 44 38 36 32 31 29 29 29 27 26 23 21 22
39 45 46 45 45 49 52 52 53 53 59 63 70 76 75 73 72 71 75 73 70 71 72 63 58 55 57 54 49 47 46 45 42 38 34 33 31 33 32 31 28 25 24
54 49 48 48 49 49 48 51 58 59 60 65 68 74 78 81 81 80 81 86 82 70 70 67 64 59 60 59 56 54 49 48 47 43 42 38 38 37 38 35 34 30 28
49 43 41 44 45 48 52 56 59 64 72 66 61 70 78 82 85 87 82 83 83 85 86 80 74 71 65 60 58 58 53 52 52 51 47 47 45 40 43 40 39 36 33
47 43 43 45 49 53 60 65 69 74 75 71 71 60 55 61 75 79 83 86 89 93 92 91 93 84 71 66 65 61 54 56 56 58 59 54 52 49 44 46 44 42 38
30 34 39 42 49 49 61 69 74 76 83 80 77 68 35 40 49 63 75 81 90 92 100 104 105 98 88 78 68 65 58 57 57 61 65 66 59 57 46 47 48 47 44
25 34 45 48 52 53 64 74 77 84 88 89 83 85 87 83 44 44 54 67 76 85 96 96 109 109 96 87 74 71 60 53 55 65 71 69 67 62 56 53 48 50 49
27 28 26 33 40 41 49 64 80 90 86 88 89 85 83 87 86 86 63 51 59 77 79 80 89 94 98 87 80 74 63 59 55 63 66 65 68 66 62 57 56 49 51
21 23 17 19 27 31 43 41 58 72 79 83 83 87 87 76 65 69 72 65 69 65 80 79 82 80 74 80 80 73 66 74 79 65 68 69 67 62 63 66 67 61 53
14 20 24 18 22 29 29 44 43 24 37 53 67 79 88 86 80 84 86 75 73 73 69 76 77 78 73 71 64 64 67 48 69 74 68 66 59 59 58 66 83 77 61
23 26 22 24 28 31 36 43 43 39 44 28 14 22 35 51 81 89 83 69 46 64 71 66 83 79 82 79 72 63 53 50 50 52 61 58 61 64 66 61 69 79 69
23 23 21 28 32 35 39 41 47 45 50 46 49 30 17 15 26 36 44 46 37 18 36 63 68 64 71 67 69 76 61 69 66 64 67 69 70 75 73 68 71 73 88
21 24 27 28 31 33 35 39 42 39 43 53 46 42 43 28 19 17 22 27 49 59 50 53 63 65 74 76 74 81 80 70 74 75 80 82 83 85 89 98 86 81 77
25 27 29 31 32 33 33 32 31 31 33 36 49 51 50 47 36 39 36 37 24 20 31 61 60 64 64 58 57 65 63 67 81 74 81 87 93 90 83 81 84 81 87
33 35 38 40 40 39 40 38 36 34 33 30 28 30 32 34 36 39 44 42 43 45 40 41 26 40 72 75 77 65 63 66 57 51 52 54 65 68 73 83 89 86 90
37 39 40 40 41 41 44 40 39 39 38 36 36 35 36 35 33 32 31 32 33 36 35 37 44 35 21 21 26 28 33 38 45 47 51 53 56 62 61 66 65 71 81
43 44 44 43 41 40 37 38 42 41 39 37 37 36 36 38 39 39 36 36 36 35 33 31 33 36 36 40 33 30 37 44 44 44 48 51 61 57 57 61 60 65 88
45 43 44 42 41 41 39 50 51 51 49 47 44 41 41 38 37 39 39 37 38 38 36 35 35 36 33 33 33 40 46 50 47 50 53 47 43 51 45 35 66 75 62
40 40 40 41 41 39 39 42 44 47 44 45 46 45 45 44 34 37 35 36 38 36 37 35 35 32 36 34 32 35 38 37 49 58 48 47 41 51 50 62 65 63 62
43 42 43 43 44 44 44 43 45 45 45 43 42 41 40 39 36 36 43 45 37 32 32 34 36 34 35 33 37 38 35 31 39 44 52 51 43 41 58 68 75 74 72
42 44 45 45 46 46 45 43 42 45 46 42 39 37 37 41 41 44 48 47 43 38 28 28 29 34 40 40 44 51 54 54 56 48 50 56 56 52 44 62 80 86 85
46 46 46 46 45 43 41 42 39 48 51 45 39 35 37 40 40 37 41 50 43 39 36 34 33 39 44 46 44 46 50 57 63 63 55 54 59 59 58 54 64 85 85
46 46 46 44 45 44 40 36 37 43 51 53 51 48 45 41 37 37 41 46 49 46 46 47 47 47 45 47 39 35 37 45 49 52 53 56 57 56 64 70 61 68 84
Wind_Direction_500mb
243 236 224 211 221 226 259 253 254 256 262 260 254 240 240 257 260 227 228 242 252 256 251 249 248 252 253 245 243 242 244 248 251 255 262 273 284 287 289 291 291 294 299
248 249 236 232 224 233 240 251 253 254 255 259 253 244 240 236 244 250 236 238 241 253 250 246 247 246 247 247 247 244 243 243 247 255 261 270 273 276 276 279 285 291 300
252 250 246 242 235 238 255 256 254 258 257 254 256 259 245 241 238 235 240 245 247 247 252 245 244 246 247 249 248 245 242 243 246 257 265 265 265 268 266 268 275 284 294
234 245 250 255 259 267 273 269 261 254 256 253 255 255 255 252 242 250 241 234 241 250 251 249 246 246 247 249 250 248 248 248 249 253 257 268 266 262 259 261 266 277 289
242 254 257 262 265 269 273 273 268 263 263 264 261 260 257 255 255 244 248 250 245 250 253 254 252 247 246 247 248 248 251 251 249 249 254 261 261 258 256 257 261 269 281
233 240 253 256 260 262 264 270 276 275 274 274 269 267 265 260 256 253 250 250 253 245 246 249 251 249 246 246 245 246 248 254 254 254 255 261 259 254 252 255 258 264 274
241 244 241 251 256 263 269 273 271 275 279 277 275 271 268 264 263 260 261 251 248 245 247 247 245 249 247 248 249 246 248 253 255 258 259 261 257 261 254 253 256 261 268
240 243 246 254 261 268 270 270 272 272 270 268 266 265 265 268 264 257 256 259 253 256 248 244 250 248 244 243 247 247 246 251 253 259 263 261 259 261 257 251 253 257 263
241 254 259 265 270 270 272 272 271 268 268 268 262 253 258 250 260 261 261 258 259 252 249 250 249 247 249 249 250 247 246 247 251 257 258 261 257 258 258 252 251 255 258
264 271 270 275 274 274 273 274 272 270 267 265 264 259 256 256 258 268 266 265 261 255 253 252 249 243 247 247 247 248 248 254 250 255 256 256 257 252 254 257 252 254 255
259 268 287 290 295 303 295 283 276 267 267 265 264 263 258 261 258 257 257 251 256 251 247 248 252 252 245 244 244 242 250 257 260 262 259 257 248 247 245 250 256 252 249
280 286 293 309 313 313 311 324 292 271 266 267 266 263 258 254 255 255 248 251 241 241 236 240 245 248 247 243 238 241 253 254 250 258 264 263 257 251 249 242 251 249 249
297 291 287 301 309 315 324 333 358 306 271 268 266 264 263 258 263 259 256 247 241 242 229 229 233 233 230 226 229 230 238 252 251 253 258 254 256 260 263 261 249 239 239
23 8 353 335 331 327 314 312 325 342 0 11 288 261 267 266 257 257 249 248 242 233 227 229 225 223 227 231 230 230 237 251 250 247 252 260 264 263 263 260 259 247 227
359 2 350 338 338 337 336 329 327 330 323 335 345 10 10 281 265 268 265 267 246 243 241 243 245 238 237 243 247 240 249 260 260 254 259 259 264 264 261 253 263 260 252
360 351 344 340 340 335 332 335 329 328 323 317 327 334 331 336 345 346 287 292 274 273 263 263 263 259 252 247 253 245 254 265 263 261 260 263 268 273 264 262 260 253 248
338 335 335 335 331 328 328 328 331 338 338 328 323 326 330 322 317 318 313 311 334 7 299 268 267 259 255 249 245 252 254 254 268 263 260 261 261 267 260 255 254 248 249
337 333 331 329 328 327 324 328 328 325 323 321 311 306 307 319 324 311 312 308 306 306 311 331 346 273 246 252 255 258 255 270 253 253 261 258 258 257 256 252 249 248 243
330 328 328 328 328 329 325 328 327 326 322 319 316 316 314 314 311 312 311 312 307 304 300 296 301 301 320 293 271 263 256 262 258 259 261 264 261 264 261 256 248 245 240
329 327 328 328 329 331 325 323 323 324 324 322 318 318 315 311 312 309 303 303 302 303 304 298 287 289 293 284 288 284 272 266 272 272 269 271 267 257 258 253 243 240 219
325 324 324 324 324 324 322 322 325 325 324 321 320 315 311 310 311 307 314 309 304 301 300 302 298 293 297 295 296 288 282 279 279 278 275 277 269 263 267 259 244 212 218
318 319 319 320 320 319 317 314 314 313 313 312 312 310 311 314 311 306 302 295 299 307 307 305 298 296 293 287 293 295 292 292 291 273 286 277 277 275 248 234 232 238 234
324 323 322 319 317 316 316 314 314 312 314 315 313 310 306 305 308 308 303 301 302 293 290 295 304 300 285 281 282 281 278 293 290 287 279 283 279 282 262 248 238 238 234
319 318 318 318 316 318 317 316 309 310 314 315 313 312 313 312 305 302 298 297 303 304 298 280 279 288 291 289 272 272 277 278 278 279 278 277 275 273 271 260 246 241 236
320 321 322 324 325 327 335 332 321 309 312 312 311 308 299 299 302 303 293 299 296 289 293 291 280 267 272 281 289 288 279 277 276 276 273 271 272 271 267 265 259 247 240
320 323 326 329 332 327 322 320 316 311 315 322 319 307 296 293 301 298 296 298 301 302 302 293 285 285 290 291 284 278 277 276 277 280 275 271 265 271 265 265 255 252 247
Wind_Speed_850mb
38 38 43 42 30 27 32 36 38 37 40 40 37 39 47 48 42 40 44 41 41 39 37 35 32 34 30 28 27 27 26 25 23 22 20 17 15 15 12 11 11 12 13
38 38 38 37 38 31 31 35 40 42 47 47 46 49 51 56 50 45 46 50 47 46 41 41 39 38 39 33 31 29 26 26 26 26 25 24 22 19 17 14 14 13 15
36 37 39 39 39 36 39 44 41 44 46 49 54 56 58 63 65 61 52 53 55 52 47 45 46 44 43 44 41 34 32 28 27 27 28 29 28 25 22 20 18 16 18
40 38 41 46 47 48 46 44 45 55 58 56 62 66 63 62 64 65 69 64 57 60 58 52 51 50 49 46 45 48 44 38 36 32 31 29 29 29 27 26 23 21 22
39 45 46 45 45 49 52 52 53 53 59 63 70 76 75 73 72 71 75 73 70 71 72 63 58 55 57 54 49 47 46 45 42 38 34 33 31 33 32 31 28 25 24
54 49 48 48 49 49 48 51 58 59 60 65 68 74 78 81 81 80 81 86 82 70 70 67 64 59 60 59 56 54 49 48 47 43 42 38 38 37 38 35 34 30 28
49 43 41 44 45 48 52 56 59 64 72 66 61 70 78 82 85 87 82 83 83 85 86 80 74 71 65 60 58 58 53 52 52 51 47 47 45 40 43 40 39 36 33
47 43 43 45 49 53 60 65 69 74 75 71 71 60 55 61 75 79 83 86 89 93 92 91 93 84 71 66 65 61 54 56 56 58 59 54 52 49 44 46 44 42 38
30 34 39 42 49 49 61 69 74 76 83 80 77 68 35 40 49 63 75 81 90 92 100 104 105 98 88 78 68 65 58 57 57 61 65 66 59 57 46 47 48 47 44
25 34 45 48 52 53 64 74 77 84 88 89 83 85 87 83 44 44 54 67 76 85 96 96 109 109 96 87 74 71 60 53 55 65 71 69 67 62 56 53 48 50 49
27 28 26 33 40 41 49 64 80 90 86 88 89 85 83 87 86 86 63 51 59 77 79 80 89 94 98 87 80 74 63 59 55 63 66 65 68 66 62 57 56 49 51
21 23 17 19 27 31 43 41 58 72 79 83 83 87 87 76 65 69 72 65 69 65 80 79 82 80 74 80 80 73 66 74 79 65 68 69 67 62 63 66 67 61 53
14 20 24 18 22 29 29 44 43 24 37 53 67 79 88 86 80 84 86 75 73 73 69 76 77 78 73 71 64 64 67 48 69 74 68 66 59 59 58 66 83 77 61
23 26 22 24 28 31 36 43 43 39 44 28 14 22 35 51 81 89 83 69 46 64 71 66 83 79 82 79 72 63 53 50 50 52 61 58 61 64 66 61 69 79 69
23 23 21 28 32 35 39 41 47 45 50 46 49 30 17 15 26 36 44 46 37 18 36 63 68 64 71 67 69 76 61 69 66 64 67 69 70 75 73 68 71 73 88
21 24 27 28 31 33 35 39 42 39 43 53 46 42 43 28 19 17 22 27 49 59 50 53 63 65 74 76 74 81 80 70 74 75 80 82 83 85 89 98 86 81 77
25 27 29 31 32 33 33 32 31 31 33 36 49 51 50 47 36 39 36 37 24 20 31 61 60 64 64 58 57 65 63 67 81 74 81 87 93 90 83 81 84 81 87
33 35 38 40 40 39 40 38 36 34 33 30 28 30 32 34 36 39 44 42 43 45 40 41 26 40 72 75 77 65 63 66 57 51 52 54 65 68 73 83 89 86 90
37 39 40 40 41 41 44 40 39 39 38 36 36 35 36 35 33 32 31 32 33 36 35 37 44 35 21 21 26 28 33 38 45 47 51 53 56 62 61 66 65 71 81
43 44 44 43 41 40 37 38 42 41 39 37 37 36 36 38 39 39 36 36 36 35 33 31 33 36 36 40 33 30 37 44 44 44 48 51 61 57 57 61 60 65 88
45 43 44 42 41 41 39 50 51 51 49 47 44 41 41 38 37 39 39 37 38 38 36 35 35 36 33 33 33 40 46 50 47 50 53 47 43 51 45 35 66 75 62
40 40 40 41 41 39 39 42 44 47 44 45 46 45 45 44 34 37 35 36 38 36 37 35 35 32 36 34 32 35 38 37 49 58 48 47 41 51 50 62 65 63 62
43 42 43 43 44 44 44 43 45 45 45 43 42 41 40 39 36 36 43 45 37 32 32 34 36 34 35 33 37 38 35 31 39 44 52 51 43 41 58 68 75 74 72
42 44 45 45 46 46 45 43 42 45 46 42 39 37 37 41 41 44 48 47 43 38 28 28 29 34 40 40 44 51 54 54 56 48 50 56 56 52 44 62 80 86 85
46 46 46 46 45 43 41 42 39 48 51 45 39 35 37 40 40 37 41 50 43 39 36 34 33 39 44 46 44 46 50 57 63 63 55 54 59 59 58 54 64 85 85
46 46 46 44 45 44 40 36 37 43 51 53 51 48 45 41 37 37 41 46 49 46 46 47 47 47 45 47 39 35 37 45 49 52 53 56 57 56 64 70 61 68 84
Wind_Direction_850mb
243 236 224 211 221 226 259 253 254 256 262 260 254 240 240 257 260 227 228 242 252 256 251 249 248 252 253 245 243 242 244 248 251 255 262 273 284 287 289 291 291 294 299
248 249 236 232 224 233 240 251 253 254 255 259 253 244 240 236 244 250 236 238 241 253 250 246 247 246 247 247 247 244 243 243 247 255 261 270 273 276 276 279 285 291 300
252 250 246 242 235 238 255 256 254 258 257 254 256 259 245 241 238 235 240 245 247 247 252 245 244 246 247 249 248 245 242 243 246 257 265 265 265 268 266 268 275 284 294
234 245 250 255 259 267 273 269 261 254 256 253 255 255 255 252 242 250 241 234 241 250 251 249 246 246 247 249 250 248 248 248 249 253 257 268 266 262 259 261 266 277 289
242 254 257 262 265 269 273 273 268 263 263 264 261 260 257 255 255 244 248 250 245 250 253 254 252 247 246 247 248 248 251 251 249 249 254 261 261 258 256 257 261 269 281
233 240 253 256 260 262 264 270 276 275 274 274 269 267 265 260 256 253 250 250 253 245 246 249 251 249 246 246 245 246 248 254 254 254 255 261 259 254 252 255 258 264 274
241 244 241 251 256 263 269 273 271 275 279 277 275 271 268 264 263 260 261 251 248 245 247 247 245 249 247 248 249 246 248 253 255 258 259 261 257 261 254 253 256 261 268
240 243 246 254 261 268 270 270 272 272 270 268 266 265 265 268 264 257 256 259 253 256 248 244 250 248 244 243 247 247 246 251 253 259 263 261 259 261 257 251 253 257 263
241 254 259 265 270 270 272 272 271 268 268 268 262 253 258 250 260 261 261 258 259 252 249 250 249 247 249 249 250 247 246 247 251 257 258 261 257 258 258 252 251 255 258
264 271 270 275 274 274 273 274 272 270 267 265 264 259 256 256 258 268 266 265 261 255 253 252 249 243 247 247 247 248 248 254 250 255 256 256 257 252 254 257 252 254 255
259 268 287 290 295 303 295 283 276 267 267 265 264 263 258 261 258 257 257 251 256 251 247 248 252 252 245 244 244 242 250 257 260 262 259 257 248 247 245 250 256 252 249
280 286 293 309 313 313 311 324 292 271 266 267 266 263 258 254 255 255 248 251 241 241 236 240 245 248 247 243 238 241 253 254 250 258 264 263 257 251 249 242 251 249 249
297 291 287 301 309 315 324 333 358 306 271 268 266 264 263 258 263 259 256 247 241 242 229 229 233 233 230 226 229 230 238 252 251 253 258 254 256 260 263 261 249 239 239
23 8 353 335 331 327 314 312 325 342 0 11 288 261 267 266 257 257 249 248 242 233 227 229 225 223 227 231 230 230 237 251 250 247 252 260 264 263 263 260 259 247 227
359 2 350 338 338 337 336 329 327 330 323 335 345 10 10 281 265 268 265 267 246 243 241 243 245 238 237 243 247 240 249 260 260 254 259 259 264 264 261 253 263 260 252
360 351 344 340 340 335 332 335 329 328 323 317 327 334 331 336 345 346 287 292 274 273 263 263 263 259 252 247 253 245 254 265 263 261 260 263 268 273 264 262 260 253 248
338 335 335 335 331 328 328 328 331 338 338 328 323 326 330 322 317 318 313 311 334 7 299 268 267 259 255 249 245 252 254 254 268 263 260 261 261 267 260 255 254 248 249
337 333 331 329 328 327 324 328 328 325 323 321 311 306 307 319 324 311 312 308 306 306 311 331 346 273 246 252 255 258 255 270 253 253 261 258 258 257 256 252 249 248 243
330 328 328 328 328 329 325 328 327 326 322 319 316 316 314 314 311 312 311 312 307 304 300 296 301 301 320 293 271 263 256 262 258 259 261 264 261 264 261 256 248 245 240
329 327 328 328 329 331 325 323 323 324 324 322 318 318 315 311 312 309 303 303 302 303 304 298 287 289 293 284 288 284 272 266 272 272 269 271 267 257 258 253 243 240 219
325 324 324 324 324 324 322 322 325 325 324 321 320 315 311 310 311 307 314 309 304 301 300 302 298 293 297 295 296 288 282 279 279 278 275 277 269 263 267 259 244 212 218
318 319 319 320 320 319 317 314 314 313 313 312 312 310 311 314 311 306 302 295 299 307 307 305 298 296 293 287 293 295 292 292 291 273 286 277 277 275 248 234 232 238 234
324 323 322 319 317 316 316 314 314 312 314 315 313 310 306 305 308 308 303 301 302 293 290 295 304 300 285 281 282 281 278 293 290 287 279 283 279 282 262 248 238 238 234
319 318 318 318 316 318 317 316 309 310 314 315 313 312 313 312 305 302 298 297 303 304 298 280 279 288 291 289 272 272 277 278 278 279 278 277 275 273 271 260 246 241 236
320 321 322 324 325 327 335 332 321 309 312 312 311 308 299 299 302 303 293 299 296 289 293 291 280 267 272 281 289 288 279 277 276 276 273 271 272 271 267 265 259 247 240
320 323 326 329 332 327 322 320 316 311 315 322 319 307 296 293 301 298 296 298 301 302 302 293 285 285 290 291 284 278 277 276 277 280 275 271 265 271 265 265 255 252 247